Total_Precipitation_Accumulation
0.72 0.49 0.54 0.50 0.44 0.40 0.39 0.45 0.54 0.51 0.50 0.52 0.55 0.60 0.55 0.55 0.53 0.54 0.62 0.72 0.86 1.02 1.15 1.26 1.42 1.56 1.62 1.78 1.62 1.42 1.41 1.51 1.64 2.00 2.51 2.81 2.87 2.81 2.83 2.84 2.78 2.42 2.37
0.53 0.43 0.50 0.48 0.47 0.45 0.45 0.51 0.48 0.43 0.46 0.47 0.48 0.58 0.58 0.58 0.56 0.58 0.62 0.76 0.96 1.18 1.24 1.30 1.38 1.63 1.63 1.61 1.59 1.43 1.36 1.49 1.64 2.05 2.67 3.21 3.34 3.21 3.12 3.12 2.84 2.62 2.42
0.43 0.43 0.48 0.53 0.51 0.51 0.48 0.52 0.47 0.43 0.48 0.53 0.51 0.58 0.65 0.60 0.59 0.59 0.66 0.81 1.08 1.26 1.27 1.36 1.51 1.65 1.67 1.51 1.48 1.44 1.46 1.60 1.73 2.18 2.93 3.12 3.23 3.44 3.49 3.29 2.80 2.51 2.18
0.40 0.45 0.46 0.59 0.62 0.57 0.52 0.53 0.53 0.50 0.51 0.58 0.64 0.64 0.70 0.65 0.64 0.68 0.75 0.86 1.11 1.30 1.47 1.50 1.54 1.64 1.63 1.46 1.40 1.52 1.69 1.82 2.03 2.44 2.84 2.77 2.71 3.25 3.30 3.09 2.63 2.37 2.14
0.46 0.49 0.53 0.60 0.67 0.72 0.70 0.69 0.68 0.64 0.63 0.65 0.73 0.77 0.86 0.81 0.74 0.77 0.83 0.91 1.11 1.23 1.49 1.74 1.74 1.75 1.68 1.54 1.49 1.67 1.94 1.97 2.28 2.51 2.70 2.92 3.01 3.28 3.06 2.88 2.47 2.33 2.27
0.59 0.62 0.57 0.76 0.87 0.91 0.89 0.84 0.83 0.79 0.76 0.80 0.84 0.84 0.90 0.90 0.88 0.94 0.98 1.05 1.23 1.33 1.45 1.71 1.95 2.04 1.88 1.93 1.76 1.86 2.18 2.23 2.22 2.31 2.73 3.22 3.22 3.29 3.02 2.79 2.47 2.45 2.32
0.87 0.86 0.72 0.78 0.81 0.90 0.91 0.94 0.90 0.87 0.85 0.92 0.95 0.91 0.92 0.89 0.91 1.06 1.23 1.27 1.38 1.46 1.49 1.59 1.78 1.97 1.98 2.21 2.22 2.15 2.39 2.47 2.23 2.42 2.82 3.10 3.12 3.20 3.11 3.01 2.72 2.48 2.29
1.05 1.00 0.78 0.81 0.80 0.94 1.00 1.02 0.98 0.97 0.97 1.04 1.09 1.04 1.00 0.97 1.01 1.17 1.37 1.48 1.52 1.47 1.45 1.60 1.69 1.92 2.23 2.41 2.50 2.44 2.47 2.55 2.20 2.36 2.77 2.93 2.79 2.93 3.21 3.18 2.89 2.57 2.32
1.09 1.14 0.98 0.99 0.98 1.04 1.12 1.14 1.22 1.15 1.15 1.19 1.18 1.27 1.18 1.13 1.25 1.37 1.44 1.54 1.57 1.52 1.42 1.45 1.62 1.69 2.05 2.25 2.36 2.38 2.38 2.59 2.40 2.37 2.48 2.99 2.81 3.04 3.33 3.16 2.88 2.62 2.38
1.79 1.84 1.62 1.49 1.44 1.35 1.29 1.22 1.32 1.31 1.33 1.43 1.36 1.37 1.39 1.37 1.40 1.52 1.49 1.59 1.57 1.48 1.45 1.44 1.59 1.66 1.79 1.84 1.80 1.93 2.05 2.14 2.18 2.23 2.61 2.79 2.92 3.48 3.69 3.39 3.10 2.87 2.64
2.57 2.64 2.25 1.83 1.68 1.89 1.74 1.41 1.57 1.49 1.44 1.50 1.48 1.49 1.57 1.82 1.99 2.02 1.79 1.95 1.90 1.75 1.64 1.65 1.66 1.66 1.66 1.73 1.75 1.80 1.75 1.48 1.93 2.41 2.59 2.89 2.99 3.53 3.92 3.56 3.28 3.11 2.81
2.87 2.88 2.56 2.06 2.18 2.42 2.12 2.03 1.99 1.78 1.70 1.63 1.75 1.77 1.91 2.44 2.62 2.28 2.37 2.32 2.32 2.19 2.06 2.03 1.99 1.84 1.67 1.57 1.74 1.79 1.44 1.31 1.75 2.36 2.70 3.09 3.40 3.71 3.79 3.52 3.40 3.35 3.11
2.98 2.70 2.36 2.29 2.35 2.61 2.62 2.52 2.44 2.42 2.42 2.42 2.47 2.47 2.65 2.76 2.64 2.50 2.78 2.63 2.58 2.48 2.41 2.44 2.25 1.92 1.83 1.84 1.83 1.73 1.55 1.55 1.83 2.11 2.58 3.10 3.43 3.78 4.00 3.66 3.48 3.53 3.31
2.91 2.85 2.79 2.82 2.68 2.91 3.32 3.33 3.14 3.07 3.02 2.94 2.88 2.73 3.08 3.22 3.10 3.09 3.16 3.09 3.23 3.22 3.18 2.83 2.58 2.32 2.19 1.96 1.79 1.75 1.81 1.84 1.97 2.31 2.75 2.96 3.26 3.57 3.92 3.96 3.82 3.74 3.50
3.21 3.12 3.10 3.20 3.19 3.29 3.75 3.99 3.74 3.63 3.45 3.32 3.22 3.22 3.30 3.29 3.30 3.44 3.37 3.55 3.54 3.47 3.30 3.06 2.65 2.60 2.42 2.23 2.05 1.89 2.02 2.18 2.25 2.54 2.75 2.90 3.03 3.29 3.81 4.30 4.26 4.13 3.89
3.49 3.29 3.24 3.31 3.30 3.39 3.63 3.88 3.94 3.89 3.96 3.85 3.56 3.52 3.56 3.53 3.60 3.62 3.61 3.56 3.41 3.26 3.31 3.24 3.02 2.94 2.73 2.57 2.35 2.28 2.27 2.28 2.40 2.49 2.70 2.95 2.79 2.87 3.45 4.09 4.48 4.42 4.33
3.79 3.75 3.60 3.60 3.73 3.68 3.70 3.77 3.74 3.78 4.07 4.11 4.03 3.99 3.80 3.71 3.73 3.74 3.76 3.64 3.47 3.40 3.47 3.38 3.29 3.19 3.02 2.88 2.78 2.67 2.63 2.50 2.45 2.52 2.75 2.97 2.94 2.97 3.22 3.64 4.11 4.38 4.49
4.23 4.18 3.80 3.48 3.78 3.87 3.92 3.94 3.96 3.99 4.19 4.19 4.08 4.19 3.98 4.05 3.94 3.83 3.65 3.45 3.40 3.38 3.60 3.64 3.54 3.53 3.38 3.24 3.22 2.92 2.84 2.82 2.62 2.69 2.77 2.86 3.19 3.28 3.36 3.40 3.63 4.05 4.41
4.74 4.51 3.99 3.72 3.81 3.99 3.99 4.12 4.33 4.49 4.48 4.34 4.19 4.26 4.12 4.17 4.12 4.01 3.99 3.90 3.74 3.81 3.82 3.53 3.63 3.72 3.74 3.66 3.31 3.15 3.00 2.92 2.79 2.69 2.67 2.70 3.00 3.28 3.33 3.39 3.55 3.73 4.09
4.84 4.74 4.31 4.12 4.35 4.36 4.26 4.29 4.42 4.55 4.56 4.65 4.65 4.59 4.46 4.42 4.51 4.66 4.64 4.50 4.29 4.19 4.16 4.23 4.22 3.94 3.75 3.75 3.43 3.33 3.18 2.91 2.77 2.72 2.57 2.59 2.77 2.75 2.87 3.01 3.34 3.44 3.64
4.09 4.18 4.36 4.40 4.48 4.52 4.55 4.55 4.69 4.86 4.87 4.85 4.96 5.00 4.88 4.82 4.97 5.31 5.33 5.17 4.82 4.54 4.39 4.40 4.41 4.19 3.89 3.73 3.79 3.63 3.26 2.92 2.81 2.69 2.65 2.64 2.50 2.51 2.71 2.91 3.02 3.05 3.13
3.90 4.10 4.34 4.36 4.52 4.80 5.21 5.71 5.97 6.08 5.92 5.75 5.64 5.57 5.44 5.36 5.48 5.57 5.68 5.32 4.95 4.78 4.53 4.31 4.29 4.15 3.85 3.80 3.89 3.98 3.56 3.27 2.75 2.37 2.46 2.47 2.45 2.49 2.53 2.55 2.67 2.78 2.80
3.51 3.87 4.14 4.47 4.85 5.37 6.03 6.84 7.17 6.94 6.48 6.24 5.94 5.87 5.64 5.43 5.41 5.55 5.30 5.06 4.85 4.65 4.43 4.26 4.29 4.25 3.88 3.74 3.88 4.12 3.82 3.43 3.03 2.67 2.39 2.30 2.40 2.46 2.48 2.53 2.47 2.59 2.66
3.12 3.61 4.09 4.62 5.20 5.88 6.51 6.98 7.21 7.11 6.85 6.53 6.06 5.65 5.27 4.95 4.76 4.68 4.59 4.36 4.27 4.13 3.99 3.80 3.86 3.96 3.87 3.61 3.55 3.39 3.33 3.21 3.16 2.86 2.58 2.38 2.37 2.41 2.44 2.38 2.37 2.51 2.62
3.03 3.52 4.03 4.54 5.23 5.72 6.26 6.69 6.97 7.01 6.91 6.53 5.80 5.14 4.70 4.33 4.08 3.81 3.62 3.57 3.55 3.51 3.33 3.16 3.19 3.24 3.22 3.19 3.18 3.03 3.01 2.98 2.90 2.77 2.67 2.59 2.52 2.34 2.28 2.28 2.31 2.38 2.50
2.96 3.49 3.89 4.24 4.96 5.64 6.14 6.51 6.81 6.82 6.64 5.99 5.25 4.67 4.26 3.92 3.67 3.41 3.25 3.15 3.13 3.05 2.87 2.74 2.72 2.72 2.73 2.78 2.89 2.91 2.84 2.75 2.68 2.71 2.53 2.44 2.44 2.29 2.22 2.19 2.18 2.27 2.39